GFSNGP_con_lsi_159.txt.gz
Lid_Strength_Index
12 13 14 14 14 14 15 14 16 16 15 13 11 10 9 9 9 10 10 11 12 12 14 15 16 16 17 17 17 17 17 17 17 16 16 16 15 15 15 14 15 16 15 15
16 13 14 15 14 14 14 14 15 14 15 11 10 11 11 10 10 10 10 10 10 11 13 14 15 16 17 17 17 17 18 17 17 16 16 16 16 16 15 15 15 16 16 16
21 15 16 22 17 14 13 13 13 16 13 11 12 11 11 11 10 11 10 10 10 11 12 13 15 16 17 17 17 17 17 17 16 16 16 16 16 15 16 16 16 17 17 17
22 21 26 16 13 12 13 12 12 12 12 11 11 10 10 10 10 9 10 10 10 10 13 16 16 17 17 17 17 17 18 17 17 16 16 16 16 16 16 16 16 17 17 17
18 26 18 16 14 14 14 15 12 12 11 11 11 13 13 11 12 13 14 13 12 13 16 17 18 18 18 18 18 18 18 17 17 17 17 17 17 18 16 16 16 17 17 17
22 23 24 17 12 10 11 18 11 11 12 12 13 15 14 13 14 16 18 18 18 18 18 19 19 18 18 18 18 18 18 18 17 17 17 18 17 17 17 16 17 17 17 17
19 20 19 14 12 10 17 16 12 12 12 12 12 11 13 16 17 17 18 19 20 20 20 20 19 18 19 19 19 18 18 18 18 18 18 18 18 17 17 17 17 17 18 18
16 18 20 12 12 13 11 12 12 12 12 12 12 13 14 15 17 18 19 20 20 20 20 20 18 18 19 20 19 18 19 19 19 19 18 18 18 18 18 18 19 20 20 20
14 15 12 12 11 10 11 11 11 11 11 11 12 12 14 16 18 18 19 21 20 20 20 19 19 17 20 21 20 20 20 20 20 19 19 19 19 20 21 21 21 20 20 21
15 13 12 11 11 10 10 10 11 11 12 12 13 14 14 16 18 19 19 20 20 20 21 20 19 19 20 20 20 20 21 21 20 21 20 20 19 20 22 22 21 21 21 23
15 12 13 11 11 10 9 10 11 13 13 13 14 14 15 16 17 18 19 20 21 22 21 22 22 22 21 21 20 21 21 21 21 21 21 22 21 21 21 21 21 25 26 24
13 12 11 10 11 12 11 10 10 12 15 16 14 15 16 18 18 19 21 20 20 21 23 23 23 24 23 22 21 21 21 21 22 22 22 22 23 23 18 18 17 17 16 20
9 8 9 9 16 17 13 14 15 15 15 16 17 17 18 20 21 21 21 21 22 23 23 24 25 25 25 24 22 22 23 23 23 23 25 26 27 27 29 25 18 18 18 18
7 9 11 15 9 16 16 18 17 19 19 18 18 20 20 21 21 22 22 22 23 24 24 25 26 26 27 26 25 25 26 26 27 29 29 30 30 32 33 32 32 32 24 20
9 9 7 15 18 20 21 21 20 19 21 21 20 21 21 22 23 23 23 24 24 24 25 26 27 29 31 31 29 31 30 31 30 32 34 33 33 33 33 34 34 35 35 26
12 15 19 17 18 20 19 19 19 20 21 21 21 22 22 22 23 25 25 25 26 27 28 28 28 31 35 33 33 36 34 31 32 35 35 34 34 33 34 34 35 36 36 34
17 17 20 20 18 19 19 19 19 20 21 22 22 23 24 25 26 27 27 26 25 25 27 28 30 34 37 36 33 34 34 36 33 36 35 36 35 34 34 35 35 36 34 32
17 17 17 17 16 18 20 20 20 21 22 22 23 24 25 26 26 28 30 32 32 33 32 33 33 35 37 38 37 34 33 35 37 35 36 35 35 35 35 35 35 34 32 33
26 24 24 23 22 21 21 21 22 22 24 25 26 27 27 29 28 30 33 33 32 31 30 36 26 34 35 37 36 35 33 34 36 36 36 35 36 38 36 35 33 32 32 31
31 31 30 29 28 25 24 27 26 26 27 27 29 29 30 31 31 31 32 31 30 30 31 31 29 33 34 34 26 35 35 34 33 35 36 35 34 34 33 31 31 31 32 32
30 30 29 29 30 31 29 27 27 28 30 28 27 28 28 32 32 32 33 30 29 33 35 30 29 31 32 32 32 32 33 33 33 32 33 31 32 32 31 31 31 30 29 30
32 30 29 30 30 33 34 31 30 30 30 30 32 31 31 33 33 33 34 28 34 30 33 31 30 31 31 28 32 32 32 33 32 33 33 33 33 31 31 30 29 28 28 29
33 33 34 33 32 32 35 32 30 29 29 29 29 29 28 28 28 29 28 27 35 30 30 31 30 29 27 29 31 31 31 31 30 30 30 30 29 30 29 29 28 28 29 28
34 35 35 36 32 32 31 33 32 31 30 32 30 28 28 30 34 32 33 31 29 28 30 30 28 24 25 30 31 31 31 30 29 29 29 29 29 29 29 28 28 28 28 28
34 35 36 35 32 30 33 34 36 38 35 34 34 33 31 32 27 26 30 33 27 29 30 27 25 23 26 30 30 30 30 29 29 29 29 29 28 29 28 28 28 27 28 28
34 32 31 31 30 31 32 32 30 31 32 32 35 32 34 33 33 32 29 29 30 29 29 30 27 26 27 29 30 29 28 28 28 28 28 28 28 28 28 27 27 27 27 27
38 36 36 36 36 32 30 30 30 30 30 29 28 29 30 30 30 30 31 30 29 29 30 31 29 28 28 28 28 28 27 26 26 26 26 26 27 27 27 27 26 26 26 27

GFSNGP_con_lsi_162.txt.gz
Lid_Strength_Index
13 13 13 14 14 13 14 14 16 16 16 13 12 11 11 11 11 12 11 11 11 12 13 15 15 16 17 17 18 17 18 18 18 17 17 17 16 15 15 15 15 15 15 15
15 14 15 16 15 14 14 14 14 14 15 11 10 11 11 11 11 12 12 11 10 11 12 13 15 16 17 17 18 18 18 18 18 17 17 16 16 15 15 16 15 15 16 15
21 16 17 22 18 15 14 13 13 16 13 12 12 12 12 12 12 11 11 11 11 11 11 12 15 16 17 18 17 18 18 17 17 17 16 16 16 15 15 16 16 16 16 16
22 21 25 16 14 12 13 12 12 12 12 11 11 12 12 11 11 11 11 11 12 12 12 13 16 17 17 18 18 18 18 17 17 17 16 16 15 15 15 16 16 16 17 17
21 27 19 17 15 14 14 15 12 13 11 12 12 14 14 11 12 12 13 14 15 17 17 18 18 17 17 18 18 18 18 18 17 16 16 16 16 16 16 16 16 17 16 17
25 23 24 17 13 12 12 17 12 11 12 13 13 15 15 12 12 14 16 17 17 19 19 19 19 18 18 19 19 19 18 17 16 15 16 16 16 16 16 16 16 17 17 17
23 22 20 14 13 11 18 16 12 12 12 13 13 12 13 13 14 15 16 18 21 22 22 22 20 18 19 20 20 18 17 17 17 16 17 16 17 16 16 17 17 18 19 19
17 21 19 13 13 14 11 13 12 12 12 12 13 13 13 14 14 16 18 19 19 21 21 22 19 19 19 20 19 18 17 17 17 18 16 16 17 17 17 18 19 19 20 20
14 15 12 13 11 11 12 12 12 12 12 12 12 12 11 13 15 17 18 20 20 21 21 21 21 19 20 20 18 18 18 18 18 18 17 17 18 19 19 19 19 20 21 22
15 13 13 12 11 11 11 11 10 11 11 11 11 12 13 14 16 18 19 20 21 21 21 21 21 19 18 18 18 19 19 19 19 19 19 19 19 19 20 21 21 21 22 23
17 14 15 12 11 10 10 11 11 11 11 12 12 13 14 15 16 18 19 20 21 21 21 22 21 20 19 19 19 19 20 20 20 20 20 20 20 20 20 21 21 22 23 22
14 13 12 10 10 11 11 11 11 11 14 15 14 14 16 16 17 18 20 21 21 22 22 22 21 21 21 20 19 20 21 21 21 21 22 22 22 22 18 17 16 16 16 21
10 11 13 10 17 15 12 12 12 13 14 15 16 16 17 19 20 20 21 21 21 20 21 22 23 23 22 21 20 20 21 21 22 22 23 24 24 24 26 25 17 17 17 17
12 13 12 14 11 14 15 17 17 19 19 17 17 20 19 20 22 21 21 20 21 22 23 23 24 24 24 23 21 22 23 23 24 25 27 29 30 31 32 32 32 32 24 20
12 11 8 10 18 19 20 21 21 19 21 22 22 19 19 20 21 21 21 22 23 23 24 24 25 26 26 26 25 26 26 28 30 32 33 31 33 34 35 35 35 36 36 27
8 11 10 15 10 17 21 22 18 17 18 18 19 19 20 20 21 23 23 24 25 25 25 25 25 30 32 30 30 30 30 30 31 32 35 35 34 34 36 36 37 37 37 36
16 13 21 19 14 16 18 16 16 16 19 19 19 20 22 23 24 25 25 24 23 25 25 26 28 30 33 32 30 31 32 32 32 36 34 36 36 36 36 37 36 38 36 35
11 12 15 13 12 14 17 17 19 19 19 19 20 22 23 24 24 25 26 26 27 29 30 30 31 33 34 35 33 33 33 33 36 34 38 37 37 37 37 37 37 36 35 35
25 23 21 21 21 20 18 19 19 19 20 21 23 23 24 24 26 26 29 29 30 30 30 36 25 33 34 36 34 33 33 35 37 39 38 36 38 40 38 38 36 36 35 33
27 29 29 29 29 27 26 26 24 25 25 24 26 27 28 29 29 30 30 29 28 29 30 32 28 32 34 33 27 34 34 33 34 36 37 37 36 36 36 34 34 33 35 34
28 30 30 30 30 30 26 26 26 27 28 27 25 26 26 29 29 29 31 29 29 36 31 30 29 31 32 32 31 34 34 34 33 33 34 34 35 34 34 34 33 32 31 32
32 32 31 31 31 32 34 32 29 29 28 27 28 28 29 30 32 32 35 29 32 30 32 29 29 31 31 29 32 33 33 34 33 34 35 35 34 33 32 32 32 31 31 30
32 33 33 32 32 32 37 33 30 27 27 27 27 28 27 28 29 29 28 28 35 28 29 30 29 29 28 30 31 32 32 32 32 32 32 32 31 31 30 30 30 30 30 30
36 34 33 35 34 35 32 32 34 32 29 29 28 27 28 30 34 33 34 29 29 26 28 30 27 25 26 30 31 32 31 31 31 31 31 30 30 30 29 29 30 29 29 29
33 34 35 33 31 29 32 34 37 38 36 34 33 31 29 30 26 26 32 31 26 28 29 26 25 24 27 30 30 30 31 31 30 31 30 29 29 29 28 29 29 29 29 29
36 32 31 31 30 31 31 33 30 32 33 33 37 33 34 34 33 28 28 30 29 28 29 30 27 26 27 29 30 30 30 30 30 29 29 28 28 28 27 28 28 28 28 28
38 36 37 37 37 34 31 30 30 30 30 29 30 31 30 30 31 31 29 28 29 29 29 30 28 27 27 28 29 30 29 29 28 28 28 27 27 27 26 27 27 27 27 28

GFSNGP_con_lsi_165.txt.gz
Lid_Strength_Index
15 14 15 14 13 13 14 14 16 15 15 13 12 11 11 10 11 12 12 12 12 12 13 14 15 16 17 17 17 17 18 18 18 17 17 17 17 16 16 16 16 15 14 14
16 14 16 16 15 14 14 13 14 14 14 11 10 10 10 10 11 12 12 12 12 12 12 13 14 15 16 17 17 17 18 18 18 17 17 17 17 17 16 16 16 15 14 14
18 16 16 19 18 15 15 13 12 15 12 10 11 11 11 12 12 12 12 11 11 11 12 12 12 15 17 17 17 18 18 18 17 17 17 17 16 16 16 16 15 15 15 14
20 20 23 16 15 13 14 13 12 12 12 10 10 11 12 11 11 11 11 11 12 13 14 14 15 17 17 17 17 18 18 18 18 17 17 16 16 16 16 16 16 16 16 15
21 28 19 17 15 15 14 14 12 12 10 11 12 14 13 11 11 11 12 12 13 15 16 17 18 18 18 18 18 18 18 18 18 17 17 17 16 16 16 15 15 15 16 16
29 26 25 17 14 12 13 17 12 11 11 12 14 16 12 13 13 12 13 14 15 18 18 19 19 18 18 18 18 19 18 18 17 17 17 16 16 16 14 15 15 15 16 17
26 25 20 14 14 12 19 16 12 12 11 13 14 12 13 12 12 13 13 16 20 21 20 20 20 19 19 20 20 19 18 18 18 17 16 16 16 15 15 15 16 18 18 18
24 23 20 14 14 15 12 13 13 13 13 13 13 13 14 13 12 13 15 18 18 20 20 21 18 18 19 20 19 19 18 17 17 17 16 15 15 15 16 16 18 19 20 20
14 14 13 14 12 11 12 12 13 13 13 13 13 14 13 13 13 13 15 18 19 20 21 22 20 19 20 21 20 19 18 19 17 17 16 16 16 17 17 18 19 20 20 21
15 13 13 13 13 13 12 12 12 13 12 13 12 12 12 13 13 15 17 18 20 21 21 21 22 19 20 19 18 19 18 18 18 18 18 17 18 18 18 20 21 21 22 22
17 15 15 13 12 11 11 12 13 13 12 12 12 12 13 13 14 16 17 20 20 20 21 21 22 22 20 19 18 18 18 19 19 19 19 20 19 20 20 20 20 22 23 22
15 12 13 11 13 11 12 12 11 12 12 13 13 12 15 15 16 17 18 20 20 21 21 22 21 21 20 18 18 19 20 20 20 20 21 21 22 22 18 18 16 16 17 21
14 15 14 14 18 17 13 12 12 13 12 12 16 14 17 17 19 18 20 20 20 20 21 21 21 20 19 19 18 19 20 20 21 22 23 23 23 23 24 23 16 16 16 16
13 15 14 16 11 15 15 13 17 18 17 15 16 19 18 19 22 20 21 21 22 21 21 21 21 21 20 19 19 20 21 22 22 24 25 27 26 27 28 28 29 30 24 21
13 13 10 12 16 17 21 22 18 16 18 21 23 20 21 21 21 21 21 20 20 21 21 22 22 23 23 22 22 22 23 26 28 30 30 29 31 32 33 35 36 36 36 27
12 15 14 14 11 10 17 23 18 15 17 18 19 20 19 19 19 20 21 21 23 23 23 23 23 24 26 24 25 28 29 29 30 31 33 33 32 33 35 36 37 37 38 36
15 12 15 19 14 13 13 14 15 13 16 19 18 20 20 20 22 23 23 22 22 23 24 24 25 27 28 28 27 29 30 31 31 34 32 33 33 32 32 34 35 36 35 36
12 9 10 14 13 12 12 13 15 17 18 19 21 21 22 22 22 23 24 23 24 25 24 26 28 30 32 32 31 30 29 31 33 32 35 35 35 34 34 34 36 36 37 37
24 20 21 23 23 22 21 20 19 20 22 22 22 22 22 22 23 24 25 25 26 27 28 30 24 31 33 33 31 31 31 33 35 40 35 36 36 38 37 37 37 36 37 36
24 26 28 29 31 29 24 25 24 21 22 22 23 24 24 26 26 27 27 27 26 28 29 31 28 31 32 31 27 31 32 32 32 35 36 35 34 36 37 36 36 36 38 37
23 24 26 27 27 30 30 29 28 27 28 26 24 25 26 29 29 29 29 27 28 35 30 30 30 30 31 31 31 32 32 33 33 32 33 33 35 36 35 36 36 35 34 34
25 32 29 30 31 31 33 34 31 30 29 30 30 28 28 29 31 30 32 27 29 32 30 29 28 30 30 28 30 32 32 32 32 34 34 35 35 34 34 34 34 33 33 33
32 34 32 32 31 29 35 34 31 29 28 27 27 27 26 26 27 28 27 28 31 30 29 27 27 28 27 29 30 31 31 32 32 32 32 33 33 33 33 33 32 32 32 32
38 37 35 36 37 35 32 31 33 33 31 31 30 28 27 29 33 33 35 29 30 26 28 28 25 24 27 29 30 31 31 31 31 31 32 32 32 32 32 32 31 31 31 31
34 36 38 38 32 29 31 34 36 36 35 33 33 31 29 30 26 25 32 30 26 26 27 25 24 23 27 29 30 30 30 30 30 31 31 31 31 32 31 31 30 30 30 30
37 32 31 31 29 30 31 33 30 32 34 33 35 34 33 33 33 28 28 30 28 27 27 27 26 25 27 29 30 30 30 30 30 30 31 31 30 30 29 29 28 28 28 27
39 36 38 35 35 34 32 30 30 31 30 28 29 32 31 32 33 31 28 30 30 28 29 29 27 26 27 28 29 29 29 29 29 29 30 29 28 28 27 26 26 26 26 27

GFSNGP_con_lsi_168.txt.gz
Lid_Strength_Index
15 15 15 15 14 14 14 13 15 16 16 14 12 11 11 11 11 11 12 12 12 12 11 12 13 14 15 16 17 17 18 18 17 17 17 17 17 17 17 17 17 16 16 15
17 14 15 16 15 14 13 14 14 14 15 12 10 10 10 9 8 11 12 12 12 12 12 11 12 13 14 15 16 16 17 17 17 17 17 17 17 17 17 17 17 16 16 15
17 17 15 18 18 15 14 14 12 15 12 9 9 9 9 9 11 12 12 12 11 12 12 12 12 12 14 16 16 17 17 17 17 17 17 17 17 17 17 17 16 16 16 15
22 22 21 16 16 13 13 13 12 13 12 10 9 9 10 10 11 12 12 11 11 12 12 13 15 15 15 16 16 16 17 17 17 17 17 17 17 17 17 16 17 16 16 15
21 26 19 18 16 15 15 14 12 12 10 12 12 14 13 11 11 10 10 11 11 12 14 15 16 16 16 17 17 17 17 17 17 17 17 17 17 17 17 16 16 16 15 15
31 25 24 18 15 13 13 17 12 11 11 11 13 15 10 12 12 11 11 12 13 15 17 17 17 16 16 17 17 18 18 17 17 16 16 17 17 16 16 16 15 15 16 16
27 26 20 15 15 13 19 16 13 12 11 13 13 10 12 12 13 12 12 14 17 17 16 17 18 17 18 19 19 18 18 17 17 17 17 17 16 16 16 16 16 16 17 18
20 23 20 14 15 15 13 14 13 13 12 13 13 14 13 13 13 13 14 16 16 18 18 20 18 18 18 19 19 18 18 18 18 18 16 16 16 16 16 17 18 19 20 20
15 15 13 15 14 13 13 12 13 13 13 12 13 14 13 13 13 12 13 16 18 18 19 20 20 18 19 20 19 19 18 19 19 18 16 15 16 16 17 17 19 20 20 22
16 15 14 14 13 14 13 12 13 14 13 14 13 14 14 13 13 14 16 16 18 19 20 20 20 18 19 19 18 18 19 18 17 17 16 16 16 17 18 19 20 21 23 24
17 17 16 14 12 11 11 13 14 14 13 12 13 13 13 13 13 14 15 18 18 18 19 19 20 21 21 19 18 18 17 17 17 17 17 18 18 18 19 21 20 23 26 24
15 14 12 11 13 13 12 12 12 13 14 14 14 13 15 13 14 15 16 20 20 19 19 20 20 20 20 18 17 17 17 17 17 18 19 20 20 21 17 18 16 16 17 21
13 18 15 16 18 17 14 12 13 13 13 13 15 14 17 15 18 17 20 19 18 18 19 21 21 21 20 18 17 17 17 18 19 20 21 22 22 22 23 20 15 15 16 16
15 15 14 17 12 16 17 14 16 18 16 15 13 19 17 16 23 19 18 19 22 22 22 21 21 20 19 17 17 17 18 19 20 21 22 23 23 25 23 22 25 30 21 20
12 13 11 14 18 18 19 22 18 15 15 17 19 17 21 18 18 18 23 22 22 22 21 20 20 20 19 18 18 19 20 21 22 23 25 25 28 28 28 30 30 34 35 27
17 17 17 16 12 12 18 23 18 13 18 15 17 19 18 18 21 20 21 20 21 22 21 21 21 21 20 19 20 21 21 23 25 27 30 30 29 29 32 32 34 34 35 33
16 14 21 20 16 13 15 12 13 13 14 18 18 19 20 20 22 21 21 21 20 22 22 22 22 23 22 22 22 24 25 27 28 31 29 29 29 29 31 33 33 34 33 36
14 11 15 14 15 17 16 17 15 16 17 16 19 20 21 21 21 24 24 23 24 26 25 24 26 26 25 24 24 26 27 30 30 29 32 32 32 32 33 33 34 34 36 38
25 21 24 23 24 23 22 21 21 20 23 22 22 21 22 23 24 26 25 25 27 27 27 29 23 26 27 28 28 28 29 30 32 36 35 34 35 36 35 35 34 35 36 34
25 27 28 28 29 29 24 26 27 24 26 26 26 26 27 28 26 26 25 25 25 25 28 28 24 28 30 27 26 29 29 29 30 34 34 34 33 35 35 34 34 35 36 36
21 22 24 26 26 30 30 32 31 29 30 29 26 25 25 27 27 27 28 26 27 33 29 27 29 30 30 29 30 30 29 30 30 31 32 33 33 34 34 34 34 34 34 35
29 28 29 32 33 29 30 32 32 31 31 31 30 29 28 28 30 30 31 26 29 30 28 27 28 30 29 28 29 30 30 30 30 32 33 33 33 32 32 33 33 33 33 34
29 33 33 35 33 30 34 34 32 32 31 30 28 29 27 26 27 27 26 28 29 29 27 27 28 28 27 27 29 29 30 30 30 30 31 31 31 31 31 31 32 32 33 33
33 33 33 38 40 37 31 30 33 32 32 33 30 30 29 29 32 31 33 29 28 26 27 27 25 24 26 28 29 30 29 30 30 30 31 31 31 32 32 32 32 32 32 32
31 33 38 38 34 29 31 34 36 36 35 33 31 30 29 30 25 26 32 31 26 27 28 25 23 23 28 28 29 28 29 29 29 30 31 31 31 31 31 31 31 31 30 29
35 30 29 30 28 30 31 35 30 32 32 31 31 31 32 32 33 31 29 30 28 27 27 26 25 24 27 28 28 28 29 29 29 30 30 30 30 30 30 30 29 28 28 27
35 35 37 33 32 31 32 31 31 28 30 28 27 31 30 31 31 30 29 29 29 28 28 27 26 25 26 27 28 28 28 28 28 29 29 29 29 29 29 28 27 26 26 26

GFSNGP_con_lsi_171.txt.gz
Lid_Strength_Index
16 15 15 15 14 14 14 14 16 16 16 14 13 12 12 11 11 11 11 11 11 11 10 10 11 12 13 14 15 16 16 17 16 16 16 16 16 16 16 15 15 15 15 15
18 15 15 15 14 14 13 13 13 14 15 13 11 11 12 11 10 10 11 10 11 11 11 11 11 11 12 14 15 15 16 16 16 16 16 16 16 16 16 16 15 15 15 14
17 16 15 18 16 14 13 12 12 15 12 11 12 12 11 10 10 9 9 10 11 11 11 11 11 11 12 13 15 15 15 15 15 15 15 15 15 15 16 16 15 15 15 15
19 17 21 16 16 13 12 12 11 11 11 10 9 9 10 9 8 9 10 10 11 11 11 11 12 12 13 14 14 15 15 14 15 15 15 15 15 15 16 15 15 15 15 15
19 25 18 15 16 15 14 14 12 10 9 11 11 13 12 10 10 9 10 10 10 10 11 13 13 14 14 15 15 15 16 16 16 15 16 16 16 16 16 16 16 15 15 15
25 19 24 17 15 13 12 16 12 10 10 12 13 14 9 11 11 11 11 11 12 13 15 15 16 15 15 16 16 16 16 16 16 15 15 16 16 16 15 15 15 15 16 16
24 21 20 15 15 13 19 16 14 12 11 13 12 10 12 12 13 13 12 13 15 17 16 16 17 16 17 17 17 16 16 16 16 15 15 15 15 15 15 15 15 16 17 16
19 19 20 15 15 15 13 14 14 13 13 13 12 13 13 14 13 13 13 15 15 17 16 18 18 17 17 17 17 17 17 16 16 16 15 15 15 15 15 15 17 18 18 18
15 15 14 15 14 13 13 12 13 14 14 13 13 14 14 14 14 14 14 15 17 16 17 19 19 17 17 18 18 18 18 18 18 16 15 15 15 15 15 16 17 19 19 20
16 16 14 14 14 14 13 13 14 14 14 14 14 14 15 14 14 14 15 15 17 18 18 17 19 18 17 19 18 18 18 18 17 16 15 14 13 14 15 17 18 19 20 21
19 17 17 15 13 12 13 14 14 14 14 13 14 14 14 14 14 14 14 17 18 17 16 15 19 19 20 19 17 17 17 16 15 14 14 14 14 15 15 16 17 19 21 22
16 14 13 12 14 14 13 13 13 13 15 15 14 13 15 15 14 14 15 17 18 18 18 18 20 20 20 19 17 18 17 17 16 15 15 15 16 16 15 16 14 15 17 19
14 17 17 17 19 18 15 15 15 15 14 14 17 14 16 14 14 15 17 20 18 16 17 22 21 21 20 19 17 17 17 16 16 16 17 17 18 18 19 16 14 15 14 15
15 16 16 19 14 17 18 15 18 18 17 15 16 19 18 18 21 20 19 17 20 21 22 23 21 20 19 18 18 17 16 16 17 17 18 18 19 19 19 20 20 19 16 16
14 14 15 18 20 19 21 20 17 16 18 18 20 17 21 17 17 15 20 23 24 24 23 21 21 21 20 18 18 17 17 17 18 18 18 19 20 22 23 23 22 26 28 22
20 20 20 18 15 17 20 23 19 14 19 16 17 17 15 16 15 22 24 23 21 20 20 21 22 19 19 18 18 18 18 19 20 21 22 23 23 25 26 25 26 27 27 26
18 18 22 20 18 16 16 16 16 16 17 17 16 16 19 20 24 25 23 22 20 21 20 21 21 21 19 19 19 19 21 21 22 23 23 24 26 25 25 27 26 28 27 30
19 18 20 18 18 17 16 21 21 19 18 17 17 20 22 23 19 20 24 26 26 27 25 24 24 22 21 21 21 22 23 24 24 24 27 27 26 26 27 27 29 29 31 32
26 23 24 24 25 25 23 23 24 25 24 23 24 21 21 23 23 25 25 25 26 26 25 28 21 24 24 23 23 24 25 27 29 29 29 30 30 30 29 29 30 31 31 31
28 29 29 28 30 29 25 25 25 25 24 28 28 27 24 27 28 27 26 24 24 24 27 27 23 26 26 23 23 26 27 27 28 30 30 30 29 31 32 31 31 31 32 33
24 28 28 29 29 29 29 29 31 29 27 31 28 24 24 27 29 29 29 26 27 33 28 26 27 28 26 25 26 27 27 28 28 29 29 30 30 31 31 32 31 31 32 32
27 27 25 31 33 30 30 33 34 31 30 30 30 31 30 30 32 31 31 26 30 29 28 26 27 28 27 26 27 28 28 28 27 29 30 30 29 30 31 31 32 31 31 31
28 30 30 31 30 29 36 35 32 32 30 29 29 28 27 28 28 28 26 28 31 29 27 27 27 26 26 27 28 28 28 28 28 28 29 29 29 29 29 30 30 30 31 31
29 31 31 36 39 36 29 28 34 32 33 34 31 29 29 30 31 29 33 30 28 26 27 27 25 24 26 27 28 28 28 28 28 29 28 29 29 30 31 31 30 30 30 30
31 31 35 36 34 28 30 31 33 35 38 34 32 31 30 27 24 27 29 30 26 27 28 25 23 23 27 27 27 27 27 28 28 29 29 29 30 30 30 30 30 30 30 29
33 27 28 30 27 29 31 35 30 32 35 31 32 31 31 30 30 30 29 29 28 27 28 27 25 25 27 27 27 27 27 28 28 29 29 29 29 29 30 30 29 29 28 28
29 33 33 31 32 31 32 31 31 27 31 31 28 33 31 31 30 30 29 29 29 28 27 27 26 25 27 27 27 27 27 27 27 28 28 28 28 28 28 28 28 28 27 26

GFSNGP_con_lsi_174.txt.gz
Lid_Strength_Index
14 13 13 13 12 12 13 12 15 13 13 11 10 9 9 8 8 9 9 8 8 7 7 7 7 8 9 9 11 11 12 13 13 13 13 13 13 13 12 12 12 12 13 13
15 14 14 14 13 12 12 12 12 11 12 8 7 7 8 8 8 9 8 8 8 8 8 8 8 8 9 10 11 11 11 11 11 12 12 12 12 12 12 12 11 11 12 12
16 14 14 16 14 13 12 10 10 13 10 8 9 9 8 8 8 8 8 7 7 8 8 8 8 9 8 8 9 10 10 11 11 12 12 12 12 12 12 12 12 12 12 12
17 15 19 14 14 11 11 10 9 9 8 7 7 7 7 6 7 7 7 6 7 7 8 7 7 8 9 9 10 11 11 11 12 12 12 12 12 12 12 12 12 12 13 13
16 16 14 13 14 13 13 12 9 9 8 7 7 7 7 6 6 5 5 4 5 6 7 8 9 9 10 11 11 11 11 12 12 12 12 13 13 13 12 12 12 12 12 13
19 18 19 14 13 11 9 14 9 8 8 7 8 10 8 5 6 6 6 7 8 8 9 9 10 11 11 12 12 12 12 12 12 12 12 12 12 13 12 12 12 12 13 12
16 16 14 12 12 10 14 12 11 9 7 7 9 6 8 7 8 8 8 9 10 11 10 10 12 12 12 12 12 11 12 12 12 12 12 12 12 12 12 12 12 13 13 13
16 16 17 13 12 12 9 10 11 10 9 8 7 9 10 10 10 11 10 11 10 10 10 11 13 13 12 12 11 13 13 13 13 13 12 12 12 12 12 12 13 13 14 14
12 12 12 11 10 9 11 10 10 10 10 9 10 10 10 10 10 11 10 11 11 11 11 13 14 13 13 11 14 15 15 15 14 13 12 11 11 12 12 11 12 14 14 15
12 12 11 12 11 12 10 10 11 10 11 11 11 11 11 11 11 11 12 12 12 13 13 12 14 15 13 14 15 16 15 15 14 13 13 12 11 11 11 12 13 14 15 16
13 13 14 12 11 10 11 12 12 11 11 11 11 11 11 11 12 12 11 12 13 13 12 11 13 14 15 15 16 15 15 15 13 13 13 13 12 12 11 11 12 14 15 16
12 11 11 10 10 11 12 12 12 12 12 12 11 11 11 11 11 11 11 11 13 13 14 12 14 15 16 16 16 15 14 14 14 14 14 13 13 12 11 12 12 12 13 16
10 11 11 13 14 13 11 11 12 12 12 11 13 12 12 11 11 12 13 14 14 13 13 13 15 16 17 17 16 16 14 15 15 14 14 14 14 15 16 13 12 13 14 14
13 13 13 14 10 13 14 13 16 16 15 13 13 15 14 14 14 14 13 12 12 14 15 16 17 17 17 16 16 16 15 16 15 15 14 15 15 16 15 15 16 16 14 14
12 13 13 15 16 16 18 17 16 15 15 14 16 16 16 15 14 13 13 15 16 18 17 18 18 17 18 17 17 17 15 15 15 15 15 15 16 16 16 16 17 18 19 14
15 17 18 17 14 17 18 21 17 15 16 15 15 15 15 14 14 14 17 18 17 15 17 19 18 17 18 18 17 17 16 16 16 16 17 17 17 17 17 17 18 18 18 17
16 15 18 17 18 18 17 16 16 15 16 17 15 15 15 15 16 17 18 19 18 18 17 18 17 19 18 18 17 16 16 17 17 17 18 18 18 18 18 18 18 18 17 18
18 18 18 17 16 17 17 17 18 18 18 17 18 18 18 18 16 15 17 19 21 21 19 18 19 19 19 18 17 16 17 18 18 19 19 19 19 18 19 19 18 18 19 20
23 20 20 19 19 20 20 19 20 20 21 21 21 20 18 18 18 17 20 21 21 20 18 22 19 20 19 18 18 18 19 19 19 20 20 20 21 20 19 19 19 19 19 22
21 22 22 22 24 25 20 21 22 22 22 22 22 23 21 20 21 22 22 21 19 18 21 21 20 21 20 19 18 18 19 20 21 21 21 21 20 21 20 21 20 20 21 22
18 20 21 22 22 23 23 23 24 23 21 25 25 22 21 21 23 24 23 20 18 23 22 23 21 21 21 19 21 20 20 20 21 22 22 21 21 21 21 21 22 21 22 22
21 21 22 23 25 23 23 24 24 26 26 26 26 26 25 23 23 24 23 20 20 26 23 22 22 23 22 22 21 21 21 21 20 21 22 22 21 21 22 22 23 22 23 23
19 21 22 24 24 22 27 27 27 28 27 26 25 24 23 21 20 22 20 20 22 25 23 22 23 24 23 22 22 22 21 21 21 21 22 21 21 21 22 22 23 23 23 23
22 23 23 25 30 28 24 20 25 24 27 27 27 27 25 23 22 23 21 25 25 24 23 22 23 22 24 22 23 22 22 21 21 21 21 23 22 22 22 22 23 23 23 24
24 25 27 27 23 20 24 23 26 26 26 26 26 26 27 24 23 20 23 23 24 25 23 23 22 22 24 23 23 23 22 22 21 22 22 23 23 23 23 23 24 23 24 24
23 22 23 25 25 24 24 25 25 23 24 23 22 23 24 25 24 24 24 25 24 24 24 23 23 22 23 23 23 23 22 22 23 23 23 23 23 24 24 24 24 25 25 24
25 27 25 24 24 25 26 26 26 25 25 25 25 23 24 25 26 26 26 24 25 24 24 24 23 23 24 23 23 23 23 23 23 23 23 23 23 23 24 24 24 24 25 25